Location: PSU-Greenbush Astrophysical Observatory
(37.5140°N, 94.9880°W)
Time: 22:57:03
(UTC-05:00)

CUTE 1.7 + AOD 2 - Pass Details

Date: 28 February 2020
Orbit: 593 x 612 km, 97.6° (Epoch: 04 April)

Event Time Altitude Azimuth Distance (km) Brightness Sun altitude
Rises 06:10:20 0° 1° (N) 2,840 ? -9.3°
Reaches altitude 10° 06:12:39 10° 353° (N) 1,933 ? -8.8°
Maximum altitude 06:16:26 34° 288° (WNW) 987 ? -8.1°
Drops below altitude 10° 06:20:12 10° 223° (SW) 1,919 ? -7.3°
Sets 06:22:29 0° 214° (SW) 2,817 ? -6.9°
